Date,TemperatureHighF,TemperatureAvgF,TemperatureLowF,DewpointHighF,DewpointAvgF,DewpointLowF,HumidityHigh,HumidityAvg,HumidityLow,PressureMaxIn,PressureMinIn,WindSpeedMaxMPH,WindSpeedAvgMPH,GustSpeedMaxMPH,PrecipitationSumIn
2013-1-1,34,25,14,32,32,32,54,41,32,31.46,23.93,21,6,21,0.00
2013-1-2,26,22,14,32,32,32,79,53,33,23.93,23.93,20,6,20,0.00
2013-1-3,30,23,12,32,32,32,76,55,42,23.93,23.93,18,5,18,0.00
2013-1-4,35,32,26,32,32,32,52,44,40,23.93,23.93,34,12,34,0.00
2013-1-5,39,33,28,32,32,32,61,43,32,23.93,23.93,25,6,25,0.00
2013-1-6,39,35,31,32,32,32,70,55,43,23.93,23.93,20,7,20,0.00
2013-1-7,36,29,23,32,32,32,69,51,34,23.93,23.93,16,4,16,0.00
2013-1-8,46,31,24,32,32,32,89,50,29,23.93,23.93,15,4,15,0.00
2013-1-9,52,39,28,32,32,32,54,40,27,23.93,23.93,33,9,33,0.00
2013-1-10,49,38,30,32,32,32,81,45,28,23.93,23.93,49,4,49,0.00
2013-1-11,47,41,34,36,32,32,75,49,29,23.93,23.93,22,6,22,0.00
2013-1-12,63,51,34,41,37,32,74,59,40,23.93,23.93,15,5,15,0.00
2013-1-13,74,57,34,50,42,32,83,59,31,23.93,23.93,48,6,48,0.00
2013-1-14,55,36,27,46,34,32,78,48,34,23.93,23.93,28,7,28,0.00
2013-1-15,43,30,26,32,32,32,52,41,21,23.93,23.93,11,3,11,0.00
2013-1-16,47,34,28,32,32,32,52,42,29,23.93,23.93,21,4,21,0.00
2013-1-17,37,26,17,32,32,32,68,44,33,23.93,23.93,22,6,22,0.00
2013-1-18,31,22,12,32,32,32,79,44,20,23.93,23.93,22,5,22,0.00
2013-1-19,50,43,25,32,32,32,44,26,19,23.93,23.93,30,8,30,0.00
2013-1-20,50,31,18,32,32,32,82,39,19,23.93,23.93,38,13,38,0.00
2013-1-21,24,19,14,32,32,32,63,42,33,23.93,23.93,17,6,17,0.00
2013-1-22,21,11,6,32,32,32,45,35,23,23.93,23.93,25,10,25,0.00
2013-1-23,23,10,6,32,32,32,55,38,24,23.93,23.93,11,3,11,0.00
2013-1-24,18,11,4,32,32,32,53,46,36,23.93,23.93,15,4,15,0.00
2013-1-25,20,13,6,32,32,32,75,50,33,30.25,23.93,10,3,10,0.00
2013-1-26,35,16,3,32,32,32,81,58,20,30.51,30.22,10,3,10,0.00
2013-1-27,41,24,16,32,32,32,72,47,21,30.69,30.51,8,2,8,0.00
2013-1-28,39,32,23,34,32,32,84,69,42,30.51,29.98,8,1,8,0.00
2013-1-29,56,41,32,48,36,32,82,77,67,30.19,29.86,51,3,51,0.00
2013-1-30,67,58,53,48,40,34,78,51,36,29.86,29.18,25,6,25,0.00
2013-1-31,54,31,23,46,33,32,85,45,23,29.83,29.15,37,14,37,0.04
2013-2-1,29,21,18,32,32,32,80,47,29,30.31,29.83,26,8,26,0.00
2013-2-2,23,19,15,32,32,32,79,47,33,30.31,30.10,22,6,22,0.00
2013-2-3,32,20,12,32,32,32,81,55,30,30.10,29.92,17,4,17,0.00
2013-2-4,27,19,13,32,32,32,79,47,28,30.07,29.98,22,6,22,0.00
2013-2-5,36,23,16,32,32,32,80,49,24,30.10,29.98,10,2,10,0.00
2013-2-6,29,23,13,32,32,32,68,46,26,30.51,29.98,22,6,22,0.00
2013-2-7,34,25,13,32,32,32,78,42,27,30.57,30.22,14,4,14,0.00
2013-2-8,34,28,19,32,32,32,86,69,36,30.22,29.92,15,5,15,0.08
2013-2-9,26,19,12,32,32,32,80,63,43,30.54,30.22,15,5,15,0.79
2013-2-10,43,24,8,32,32,32,70,49,29,30.54,30.10,12,4,12,0.00
2013-2-11,57,40,33,37,32,32,75,43,29,30.10,29.68,35,10,35,0.00
2013-2-12,37,34,32,32,32,32,76,48,33,30.10,29.80,31,10,35,0.00
2013-2-13,43,31,21,32,32,32,90,50,28,30.04,29.86,13,3,13,0.00
2013-2-14,47,34,23,32,32,32,83,55,27,30.04,29.89,14,4,14,0.00
2013-2-15,42,34,24,32,32,32,77,40,26,30.19,29.89,27,9,27,0.00
2013-2-16,36,25,20,32,32,32,79,48,30,30.19,30.07,11,3,11,0.00
2013-2-17,22,16,12,32,32,32,83,54,36,30.31,30.04,24,7,24,0.00
2013-2-18,41,23,12,32,32,32,58,37,18,30.42,30.04,15,4,15,0.00
2013-2-19,52,34,26,32,32,32,77,44,29,30.04,29.68,29,7,29,0.00
2013-2-20,27,23,20,32,32,32,59,44,34,30.19,29.89,30,11,30,0.00
2013-2-21,23,19,13,32,32,32,72,52,42,30.54,30.16,20,7,20,0.00
2013-2-22,35,28,19,32,32,32,75,51,35,30.51,30.13,17,4,17,0.16
2013-2-23,41,35,32,32,32,32,64,48,41,30.13,30.01,19,6,19,0.00
2013-2-24,38,32,30,32,32,32,73,49,33,30.19,29.98,17,6,17,0.00
2013-2-25,38,33,25,32,32,32,88,55,35,30.36,30.19,13,3,13,0.00
2013-2-26,50,35,21,32,32,32,95,59,24,30.36,29.98,19,4,19,0.00
2013-2-27,37,34,32,32,32,32,82,79,76,29.98,29.71,11,3,11,0.00
2013-2-28,38,34,32,32,32,32,83,74,54,29.86,29.66,13,4,13,0.00
2013-3-1,34,31,27,32,32,32,79,56,42,30.07,29.86,15,5,15,0.00
2013-3-2,28,25,0,32,22,0,73,55,39,30.07,29.56,13,5,13,0.04
2013-3-3,27,24,0,19,10,4,81,58,42,29.59,29.53,14,5,14,0.00
2013-3-4,35,26,0,12,8,6,56,46,34,29.74,29.56,23,8,23,0.00
2013-3-5,36,28,23,20,13,8,86,54,34,29.77,29.68,11,4,11,0.00
2013-3-6,42,34,0,29,23,16,94,64,47,29.83,29.65,13,4,13,0.00
2013-3-7,40,35,31,30,23,12,84,63,34,29.97,29.83,11,3,11,0.79
2013-3-8,49,36,30,22,13,6,65,41,21,30.06,29.94,15,4,15,0.00
2013-3-9,59,36,25,28,21,12,92,57,20,30.09,29.91,8,2,8,4.17
2013-3-10,70,51,30,17,11,6,57,23,12,29.91,29.65,15,5,20,0.00
2013-3-11,59,55,52,33,12,7,44,18,14,29.65,29.32,22,6,22,0.00
2013-3-12,54,41,36,44,24,16,81,53,38,29.59,29.35,23,8,23,0.00
2013-3-13,44,33,23,28,16,7,86,51,29,29.62,29.50,29,9,29,0.00
2013-3-14,36,26,20,15,0,-8,72,33,17,29.74,29.62,29,11,29,0.00
2013-3-15,44,32,25,28,13,1,83,46,26,29.74,29.38,27,8,27,0.00
2013-3-16,30,25,17,16,7,2,79,47,32,29.65,29.56,14,4,14,0.00
2013-3-17,35,25,14,19,5,-11,81,45,20,30.03,29.65,15,4,15,0.00
2013-3-18,35,26,12,27,8,-4,81,50,20,30.03,29.41,22,5,22,0.16
2013-3-19,40,34,27,29,16,5,81,51,31,29.50,29.35,31,8,31,7.87
2013-3-20,38,29,24,16,9,-1,69,44,22,29.50,29.47,25,8,25,0.79
2013-3-21,37,27,20,19,6,-7,65,44,20,29.50,29.38,22,7,22,0.00
2013-3-22,36,30,26,24,17,10,85,59,40,29.59,29.41,20,8,20,0.00
2013-3-23,42,33,29,23,14,7,73,45,29,29.68,29.56,22,7,22,0.79
2013-3-24,44,33,25,23,14,4,87,48,23,29.68,29.44,12,4,12,0.00
2013-3-25,42,36,30,25,17,12,78,48,31,29.44,29.32,16,4,16,0.00
2013-3-26,51,39,30,26,18,9,80,46,21,29.62,29.41,13,4,28,0.00
2013-3-27,51,38,33,32,20,13,84,52,26,29.74,29.59,18,7,18,0.00
2013-3-28,50,40,34,29,22,6,79,54,20,29.88,29.71,15,6,15,0.00
2013-3-29,56,43,36,25,18,4,62,41,15,29.88,29.80,17,6,17,0.00
2013-3-30,56,41,31,21,12,0,56,33,15,29.88,29.71,14,4,14,3.90
2013-3-31,61,46,35,38,18,5,76,38,14,29.71,29.29,100,6,100,0.00
2013-4-1,44,36,26,35,16,-3,85,46,18,29.62,29.24,29,8,29,0.31
2013-4-2,40,30,24,18,6,-2,76,37,18,29.77,29.62,32,9,32,0.00
2013-4-3,42,32,27,11,4,-4,46,31,18,30.03,29.77,51,9,51,0.00
2013-4-4,62,38,24,15,7,-3,51,31,12,30.03,29.59,16,5,16,0.00
2013-4-5,48,38,29,21,10,-4,52,32,16,29.83,29.56,20,7,20,0.00
2013-4-6,47,34,22,15,7,0,65,34,17,30.00,29.74,13,3,92,0.00
2013-4-7,72,54,37,28,15,2,46,23,12,29.74,29.35,32,9,32,0.79
2013-4-8,58,44,39,39,25,17,81,49,22,29.80,29.41,14,3,14,0.16
2013-4-9,64,49,0,44,34,25,81,59,25,29.80,29.41,26,5,26,0.00
2013-4-10,45,42,39,37,34,31,78,76,70,29.80,29.56,13,3,13,0.00
2013-4-11,39,35,32,32,24,11,83,67,35,29.83,29.65,15,2,15,0.00
2013-4-12,54,41,35,43,29,19,83,63,39,29.65,29.20,26,8,26,0.39
2013-4-13,48,43,38,27,22,14,58,44,28,29.62,29.44,53,10,53,0.79
2013-4-14,50,39,0,30,17,9,77,42,24,29.88,29.62,22,5,22,0.00
2013-4-15,82,50,34,29,17,10,41,30,11,29.85,29.71,15,4,15,0.00
2013-4-16,53,48,44,44,33,20,74,58,37,29.91,29.68,16,5,20,0.16
2013-4-17,61,45,33,30,20,11,86,40,17,30.06,29.91,11,3,11,0.79
2013-4-18,83,62,42,44,34,18,72,39,20,29.91,29.35,27,8,27,0.00
2013-4-19,76,60,42,44,34,14,62,37,25,29.44,29.06,34,11,34,0.16
2013-4-20,47,36,0,28,12,3,75,32,22,30.09,29.41,28,10,28,0.00
2013-4-21,48,35,26,16,9,-3,67,34,17,30.36,30.09,12,3,12,0.00
2013-4-22,69,47,10,22,11,-1,70,27,12,30.30,30.00,21,4,21,0.00
2013-4-23,74,55,41,18,14,4,39,21,11,30.00,29.62,15,5,15,0.00
2013-4-24,69,55,39,51,31,3,77,43,23,29.68,29.24,28,8,28,0.00
2013-4-25,58,42,35,33,23,10,73,50,17,29.97,29.68,17,5,17,0.00
2013-4-26,59,46,36,32,19,4,81,40,14,30.15,29.97,45,4,45,0.00
2013-4-27,71,52,33,27,17,3,51,28,12,30.12,29.91,94,2,94,0.47
2013-4-28,84,60,44,39,24,12,57,31,9,29.91,29.71,20,4,20,0.00
2013-4-29,71,59,50,44,37,30,76,47,28,29.74,29.65,16,5,16,0.00
2013-4-30,83,66,57,48,37,26,71,38,15,29.88,29.71,16,5,16,0.00
2013-5-1,92,67,50,38,27,11,52,27,7,30.00,29.88,14,3,14,0.00
2013-5-2,80,64,50,34,15,8,54,16,10,30.09,29.94,13,3,13,0.00
2013-5-3,85,65,52,31,21,14,43,20,9,29.97,29.88,11,3,11,0.00
2013-5-4,74,61,53,32,21,12,44,22,12,29.97,29.83,14,4,14,0.00
2013-5-5,80,60,44,39,27,15,82,34,11,29.88,29.77,11,2,11,0.00
2013-5-6,77,60,45,39,23,12,75,29,10,29.85,29.71,11,3,11,0.00
2013-5-7,83,61,0,44,34,22,81,40,15,29.80,29.71,10,2,10,0.00
2013-5-8,81,62,51,53,44,35,80,55,20,29.74,29.62,13,2,13,0.00
2013-5-9,79,62,54,52,46,40,79,58,31,29.62,29.56,13,2,13,0.00
2013-5-10,85,62,50,57,46,34,79,59,23,29.62,29.41,17,2,17,0.00
2013-5-11,62,55,45,50,40,32,82,60,35,29.44,29.32,17,6,17,0.00
2013-5-12,54,44,39,41,25,9,83,50,18,29.59,29.35,29,8,29,0.00
2013-5-13,57,43,36,28,19,8,71,39,17,29.80,29.59,99,7,99,0.00
2013-5-14,65,46,30,32,23,8,91,46,13,29.83,29.65,22,2,22,0.00
2013-5-15,84,61,45,43,29,16,75,33,12,29.65,29.18,32,5,32,0.00
2013-5-16,80,64,48,32,23,12,53,24,10,29.71,29.38,29,6,29,0.00
2013-5-17,79,55,38,42,28,11,82,45,10,29.91,29.71,7,1,7,0.00
2013-5-18,74,56,40,41,29,15,80,42,14,29.94,29.83,11,2,11,0.00
2013-5-19,93,71,55,48,42,32,57,38,14,29.83,29.65,15,3,15,0.00
2013-5-20,86,70,60,53,48,43,72,48,29,29.71,29.56,13,3,13,0.00
2013-5-21,88,69,56,62,51,45,78,56,28,29.62,29.44,13,2,13,0.00
2013-5-22,90,72,56,57,49,40,69,48,19,29.50,29.32,20,2,20,0.00
2013-5-23,84,67,44,56,44,34,75,46,19,29.59,29.38,50,4,50,0.00
2013-5-24,62,45,39,35,29,19,75,57,22,29.88,29.59,17,5,17,0.00
2013-5-25,66,51,0,34,21,10,75,35,13,29.91,29.83,22,5,22,0.00
2013-5-26,71,54,42,31,19,8,60,29,12,29.88,29.80,17,5,17,0.00
2013-5-27,82,59,40,35,22,11,72,28,9,29.94,29.83,11,2,11,0.00
2013-5-28,68,58,52,54,40,22,77,53,25,29.83,29.62,10,2,10,0.00
2013-5-29,87,72,61,57,48,38,66,46,20,29.68,29.56,24,5,24,0.00
2013-5-30,97,79,66,59,43,25,75,35,8,29.77,29.68,15,4,15,0.00
2013-5-31,100,80,68,59,44,25,73,33,8,29.74,29.59,15,3,15,0.00
2013-6-1,95,77,0,60,48,39,70,40,16,29.65,29.44,19,4,19,0.00
2013-6-2,81,70,56,58,48,34,68,48,21,29.56,29.35,28,6,28,0.00
2013-6-3,67,54,0,43,32,20,68,42,17,29.71,29.56,17,4,17,0.00
2013-6-4,76,58,47,42,25,11,83,36,10,29.85,27.91,15,4,15,0.00
2013-6-5,74,59,0,37,28,16,47,31,13,29.91,29.77,45,2,45,0.00
2013-6-6,59,56,53,48,44,33,80,64,41,29.77,29.53,13,3,13,0.00
2013-6-7,70,59,55,52,46,42,75,64,37,29.53,29.47,8,1,8,0.00
2013-6-8,72,61,55,51,44,38,70,55,32,29.74,29.50,11,3,11,0.00
2013-6-9,85,67,55,50,37,22,79,39,11,29.88,29.74,10,3,10,0.28
2013-6-10,76,64,56,59,50,40,79,62,35,29.80,29.38,12,2,12,0.16
2013-6-11,72,46,0,56,50,44,71,45,39,29.41,29.32,16,3,16,0.08
2013-6-12,83,31,0,54,42,25,76,13,14,29.59,0.00,8,1,8,0.08
2013-6-13,73,60,0,54,48,43,80,64,39,29.47,29.24,27,2,27,1.30
2013-6-14,85,66,53,51,42,33,72,46,19,29.65,29.47,13,4,13,0.00
2013-6-15,87,67,50,45,32,15,80,33,8,29.74,29.62,14,4,14,0.00
2013-6-16,87,68,61,57,46,35,75,47,24,29.62,29.38,14,5,14,0.16
2013-6-17,86,70,0,55,46,29,79,45,16,29.62,29.50,14,3,14,0.00
2013-6-18,83,64,51,52,38,20,83,45,11,29.71,29.59,10,2,10,0.00
2013-6-19,82,62,47,45,31,12,84,40,9,29.88,29.71,8,1,8,0.43
2013-6-20,84,62,43,45,30,13,82,40,8,29.94,29.88,7,1,7,0.00
2013-6-21,89,68,51,48,30,16,70,30,8,29.94,29.85,8,1,8,0.00
2013-6-22,95,75,57,66,50,39,76,45,17,29.85,29.68,28,2,28,0.00
2013-6-23,97,82,71,62,50,36,73,37,14,29.74,29.65,16,4,16,0.04
2013-6-24,93,81,72,55,47,39,54,33,17,29.71,29.59,15,5,15,0.00
2013-6-25,87,77,68,61,50,46,74,41,29,29.62,29.47,13,5,13,0.08
2013-6-26,93,76,67,65,55,41,74,51,20,29.50,29.44,18,4,18,0.31
2013-6-27,86,73,64,59,54,47,76,53,29,29.50,29.32,8,1,8,0.00
2013-6-28,70,64,62,59,52,50,76,65,50,29.32,29.20,8,1,8,0.28
2013-6-29,92,70,61,58,50,41,78,54,18,29.38,29.18,9,1,9,0.47
2013-6-30,87,71,60,57,49,40,75,49,20,29.62,29.38,8,1,8,0.00
2013-7-1,69,65,60,58,53,48,75,67,49,29.74,29.62,10,1,10,0.51
2013-7-2,81,68,59,59,52,46,76,57,31,29.80,29.71,8,1,8,0.00
2013-7-3,90,73,64,67,56,49,73,57,29,29.83,29.77,48,1,48,0.08
2013-7-4,96,77,69,64,56,42,76,53,17,29.85,29.80,11,2,11,0.04
2013-7-5,92,78,70,63,58,48,76,52,26,29.83,29.74,8,1,8,0.00
2013-7-6,99,79,68,62,51,25,76,45,8,29.83,29.71,9,2,9,0.00
2013-7-7,92,77,70,66,54,42,79,49,19,29.74,29.62,19,4,19,0.28
2013-7-8,99,77,70,64,57,43,78,53,16,29.74,29.65,10,2,10,0.00
2013-7-9,93,77,69,66,58,42,77,57,19,29.74,29.56,13,1,13,0.00
2013-7-10,91,79,71,64,56,45,75,48,25,29.56,29.38,20,6,20,0.00
2013-7-11,92,72,62,58,44,25,82,41,12,29.71,29.50,12,3,12,0.00
2013-7-12,82,69,60,60,53,43,82,60,31,29.85,29.71,6,1,6,0.04
2013-7-13,92,73,59,64,56,44,82,59,22,29.91,29.85,8,1,8,0.00
2013-7-14,97,80,67,62,53,38,79,46,16,29.97,29.91,7,1,7,0.00
2013-7-15,102,83,71,65,50,26,77,38,8,29.97,29.91,8,1,10,0.00
2013-7-16,102,83,68,63,49,27,79,37,8,29.97,29.88,9,1,9,0.04
2013-7-17,102,84,74,72,59,45,75,48,16,29.91,29.74,15,4,15,0.00
2013-7-18,105,85,75,69,58,43,76,44,15,29.77,29.62,12,4,12,0.00
2013-7-19,97,84,69,61,53,41,75,37,17,29.62,29.38,27,8,27,0.51
2013-7-20,92,76,66,61,49,20,81,49,9,29.56,29.38,17,4,17,0.35
2013-7-21,83,70,59,60,47,36,83,49,22,29.71,29.56,8,2,10,0.00
2013-7-22,90,70,57,61,46,28,84,48,16,29.68,29.47,8,2,8,0.00
2013-7-23,92,75,67,63,50,31,78,47,14,29.47,29.29,17,3,17,0.08
2013-7-24,81,65,53,51,35,19,86,38,12,29.74,29.38,16,3,16,0.00
2013-7-25,85,65,50,50,37,16,85,47,10,29.83,29.74,8,1,8,0.00
2013-7-26,88,66,51,54,35,13,87,43,8,29.83,29.68,9,1,9,3.15
2013-7-27,91,70,56,62,46,33,83,47,15,29.68,29.50,13,3,13,0.00
2013-7-28,85,68,58,60,51,35,84,58,21,29.65,29.47,10,2,10,0.04
2013-7-29,79,65,56,52,42,30,83,46,20,29.80,29.65,13,4,13,0.00
2013-7-30,89,69,58,54,43,25,83,46,11,29.88,29.80,10,3,10,0.00
2013-7-31,93,70,57,60,47,23,86,53,9,29.83,29.62,9,1,9,0.00
2013-8-1,89,70,0,61,52,37,84,56,19,29.62,29.44,14,3,17,0.55
2013-8-2,84,66,58,61,52,34,85,65,19,29.59,29.53,28,1,28,0.71
2013-8-3,86,69,61,58,43,22,86,49,11,29.62,29.50,15,4,15,0.31
2013-8-4,81,66,56,53,41,24,81,46,15,29.74,29.62,18,4,18,0.00
2013-8-5,90,66,53,53,39,16,88,49,8,29.80,29.71,11,2,11,0.00
2013-8-6,94,69,53,57,42,16,87,50,7,29.74,29.68,8,1,8,0.00
2013-8-7,91,75,66,64,47,39,75,39,19,29.68,29.53,15,5,15,0.00
2013-8-8,93,76,68,65,56,40,83,55,18,29.65,29.59,19,1,19,0.24
2013-8-9,92,72,66,64,54,36,83,60,18,29.59,29.53,13,2,13,0.51
2013-8-10,82,67,55,54,39,20,87,42,12,29.77,29.59,15,3,15,0.00
2013-8-11,91,67,53,54,40,16,89,49,10,29.83,29.71,9,1,9,0.00
2013-8-12,91,71,58,58,44,22,84,42,10,29.74,29.53,8,1,8,0.00
2013-8-13,79,67,59,61,47,29,84,53,21,29.56,29.44,22,4,22,0.28
2013-8-14,78,62,54,51,36,19,82,42,13,29.77,29.53,20,5,20,0.00
2013-8-15,85,65,52,46,35,20,79,38,12,29.83,29.74,17,4,17,0.00
2013-8-16,93,68,55,56,40,17,85,44,8,29.88,29.80,10,2,11,0.00
2013-8-17,92,69,55,56,43,17,86,50,7,29.97,29.88,7,1,7,0.00
2013-8-18,97,72,59,59,44,20,84,45,10,29.94,29.80,8,1,8,0.00
2013-8-19,94,73,61,56,45,24,84,45,9,29.80,29.71,10,3,10,0.00
2013-8-20,94,75,62,59,44,24,83,41,9,29.80,29.74,14,4,14,0.00
2013-8-21,96,76,64,54,43,25,71,36,9,29.83,29.71,12,4,12,0.00
2013-8-22,88,74,65,66,51,42,80,45,22,29.71,29.59,15,4,15,0.24
2013-8-23,87,68,56,57,44,22,88,53,11,29.88,29.68,8,1,8,0.00
2013-8-24,90,66,52,54,36,15,89,49,8,30.03,29.88,8,1,8,0.00
2013-8-25,92,70,55,58,35,16,80,37,7,30.03,29.80,14,4,14,0.04
2013-8-26,85,71,65,66,56,44,81,62,30,29.83,29.59,16,5,16,0.94
2013-8-27,95,75,68,65,59,42,83,62,21,29.62,29.56,22,1,22,0.00
2013-8-28,93,77,67,67,59,44,82,59,22,29.65,29.53,8,1,8,0.00
2013-8-29,95,76,65,67,58,45,84,60,23,29.74,29.62,7,1,7,0.00
2013-8-30,94,76,64,61,50,32,85,48,14,29.68,29.44,11,2,11,0.00
2013-8-31,86,74,65,66,58,46,83,62,30,29.53,29.38,13,2,13,3.66
2013-9-1,88,73,64,64,57,46,83,62,26,29.53,29.44,9,2,9,0.00
2013-9-2,89,73,65,64,54,42,79,55,21,29.47,29.35,16,4,16,0.00
2013-9-3,69,64,61,50,43,34,68,46,28,29.62,29.47,17,5,17,0.00
2013-9-4,86,68,54,60,39,16,86,43,8,29.65,29.62,28,5,28,0.00
2013-9-5,75,60,48,50,32,12,89,42,11,29.91,29.65,13,2,13,3.15
2013-9-6,82,60,44,50,31,12,91,44,9,29.97,29.77,10,2,10,0.00
2013-9-7,68,60,54,58,43,32,83,54,34,29.77,29.53,10,3,10,0.04
2013-9-8,81,64,48,60,37,13,91,47,9,29.80,29.53,13,2,13,0.04
2013-9-9,92,63,47,56,36,17,91,46,7,29.85,29.65,22,2,22,0.00
2013-9-10,97,80,67,64,51,44,81,40,18,29.68,29.56,90,5,90,0.08
2013-9-11,100,83,74,64,51,42,63,36,15,29.71,29.56,16,6,16,0.00
2013-9-12,75,69,60,65,58,49,82,69,41,29.62,29.41,11,5,11,0.12
2013-9-13,62,56,50,54,42,30,86,63,38,29.71,29.44,11,3,11,0.20
2013-9-14,72,55,47,42,29,11,77,42,12,29.80,29.71,11,3,11,0.04
2013-9-15,76,58,0,50,34,23,84,45,18,29.83,29.74,13,4,13,0.04
2013-9-16,66,52,45,50,41,23,88,71,23,30.06,29.77,11,2,11,0.08
2013-9-17,77,53,39,44,29,10,92,55,10,30.18,29.97,10,2,10,0.00
2013-9-18,85,60,45,49,29,14,89,41,9,29.97,29.80,45,2,45,0.00
2013-9-19,93,66,50,56,37,16,87,44,7,29.80,29.71,9,2,9,0.00
2013-9-20,93,72,58,54,43,31,84,42,12,29.71,29.44,13,2,13,0.00
2013-9-21,73,64,54,58,51,40,83,66,31,29.44,29.32,93,2,93,0.94
2013-9-22,63,53,50,46,32,16,78,48,19,29.71,29.41,14,4,14,0.00
2013-9-23,68,53,43,43,27,12,90,42,15,29.85,29.71,15,2,15,0.00
2013-9-24,78,54,41,48,31,12,91,52,10,29.83,29.68,11,2,11,0.00
2013-9-25,80,56,42,47,34,14,89,58,10,29.71,29.65,8,1,8,0.00
2013-9-26,80,57,42,50,38,25,90,60,17,29.83,29.68,8,1,8,0.00
2013-9-27,82,57,45,59,42,27,89,66,14,29.94,26.13,18,0,18,0.00
2013-9-28,83,60,43,53,38,21,90,53,11,29.97,29.85,10,1,10,0.00
2013-9-29,90,64,44,50,32,17,72,37,7,29.85,29.68,90,3,90,0.00
2013-9-30,93,66,59,56,40,23,80,42,10,29.71,29.62,8,1,8,0.00
2013-10-1,87,68,58,57,44,22,84,49,11,29.71,29.59,21,2,21,0.00
2013-10-2,84,69,54,54,42,16,82,44,9,29.77,29.59,30,4,30,0.00
2013-10-3,81,60,47,52,36,14,91,53,10,29.83,29.71,9,1,9,0.00
2013-10-4,67,62,59,58,52,42,82,69,42,29.77,29.68,6,0,6,0.39
2013-10-5,67,62,59,56,46,38,83,58,39,29.80,29.74,8,1,8,0.12
2013-10-6,92,70,60,68,54,44,83,63,27,29.74,29.41,28,2,28,0.20
2013-10-7,74,61,50,54,42,25,83,51,25,29.71,29.32,50,6,50,0.59
2013-10-8,79,55,43,44,31,12,91,50,10,30.03,29.71,11,2,11,0.00
2013-10-9,79,54,43,46,34,13,89,57,10,30.09,29.97,25,2,25,0.00
2013-10-10,81,53,38,44,31,11,92,59,10,29.97,29.85,8,1,8,0.00
2013-10-11,77,54,42,53,37,13,92,65,12,29.85,29.83,8,1,8,0.00
2013-10-12,82,57,41,49,32,14,91,51,9,29.88,29.83,45,1,45,0.00
2013-10-13,81,64,50,57,35,17,82,39,15,29.94,29.88,51,3,51,0.12
2013-10-14,78,58,44,55,40,17,90,61,13,30.03,29.94,9,1,9,0.08
2013-10-15,81,56,40,56,36,15,93,58,10,29.97,29.65,25,1,25,0.00
2013-10-16,72,63,57,55,37,26,82,40,25,29.65,29.44,51,6,51,0.16
2013-10-17,76,57,49,50,35,16,86,49,13,29.56,29.35,12,3,12,0.43
2013-10-18,68,54,50,49,26,9,86,39,12,29.59,29.41,22,5,22,0.00
2013-10-19,71,55,45,47,26,11,85,37,12,29.59,29.32,22,5,22,0.04
2013-10-20,60,49,42,36,24,11,64,39,17,29.68,29.41,13,5,18,0.04
2013-10-21,74,56,47,37,20,8,54,27,11,29.68,29.47,18,5,18,0.00
2013-10-22,58,47,37,46,20,2,85,39,13,29.53,29.44,94,6,94,0.24
2013-10-23,55,41,35,29,19,10,66,42,26,29.50,29.38,10,4,10,0.00
2013-10-24,53,41,35,34,19,7,83,45,19,29.71,29.47,21,7,21,0.08
2013-10-25,58,43,36,34,24,12,88,52,20,29.85,29.71,13,4,13,0.00
2013-10-26,47,43,39,28,14,2,61,31,17,29.80,29.47,29,8,29,0.00
2013-10-27,54,43,38,31,21,12,75,43,24,29.74,29.50,14,5,14,0.00
2013-10-28,55,42,26,24,14,-2,88,36,14,30.09,29.71,17,4,17,0.00
2013-10-29,59,38,25,26,12,-2,93,42,12,30.15,30.00,10,2,10,0.00
2013-10-30,71,46,37,41,29,10,87,61,12,30.00,29.80,9,1,9,0.00
2013-10-31,68,57,41,52,38,22,87,52,28,29.80,29.06,21,5,21,0.47
2013-11-1,66,58,49,52,33,21,79,41,21,29.35,28.85,40,11,40,0.40
2013-11-2,54,46,38,43,34,16,84,64,32,29.71,29.29,12,4,12,0.24
2013-11-3,46,34,28,18,6,-3,46,31,18,30.21,29.71,13,4,13,0.00
2013-11-4,55,36,24,14,3,-5,62,29,12,30.36,30.12,12,3,12,0.00
2013-11-5,66,48,35,13,4,-5,20,16,13,30.15,30.00,16,6,16,0.00
2013-11-6,68,57,48,52,22,6,81,29,15,30.00,29.47,19,6,19,0.04
2013-11-7,59,45,39,49,23,3,77,44,17,29.68,29.47,17,6,17,0.08
2013-11-8,49,40,36,20,12,1,52,33,16,29.91,29.62,24,6,24,0.00
2013-11-9,50,43,36,38,12,4,69,31,16,29.91,29.44,15,5,15,0.00
2013-11-10,51,45,40,29,18,10,52,34,22,29.83,29.44,28,9,28,0.00
2013-11-11,47,38,30,34,19,2,87,49,20,29.85,29.59,26,6,26,0.24
2013-11-12,37,29,25,21,5,-4,69,37,20,30.09,29.80,19,7,19,0.04
2013-11-13,45,32,19,12,1,-5,45,28,15,30.09,29.74,26,7,26,0.00
2013-11-14,56,44,36,6,0,-5,24,16,12,29.77,29.68,55,9,55,0.00
2013-11-15,59,45,38,16,3,-4,41,18,12,29.80,29.71,45,4,45,0.00
2013-11-16,74,52,41,30,11,0,59,21,11,29.91,29.71,13,4,13,0.00
2013-11-17,68,58,52,44,33,20,69,40,26,29.71,29.03,26,6,26,0.08
2013-11-18,58,47,37,34,15,4,48,28,19,29.56,29.03,39,13,39,0.08
2013-11-19,42,35,24,16,8,-2,71,34,18,30.15,29.56,26,6,26,0.00
2013-11-20,56,31,20,20,4,-6,81,39,13,30.30,30.15,9,2,9,0.00
2013-11-21,48,40,30,31,5,-6,69,25,14,30.15,29.94,17,5,17,0.00
2013-11-22,48,43,33,43,34,12,85,72,39,29.94,29.68,22,4,22,0.28
2013-11-23,38,29,19,26,5,-12,82,37,19,29.88,29.68,26,8,26,0.04
2013-11-24,29,22,18,5,-6,-13,56,30,19,30.09,29.85,20,8,20,0.00
2013-11-25,42,29,18,6,-3,-8,46,26,16,30.06,29.80,29,6,29,0.00
2013-11-26,37,35,33,30,16,5,89,52,30,29.83,29.50,17,3,17,0.08
2013-11-27,36,31,24,32,18,-1,91,61,31,29.59,29.32,25,5,25,0.63
2013-11-28,36,24,19,9,-3,-11,57,31,17,30.12,29.59,17,5,18,0.00
2013-11-29,36,23,12,18,0,-11,75,42,17,30.42,30.12,13,2,13,0.00
2013-11-30,35,25,12,5,-1,-11,50,34,17,30.42,29.85,15,4,15,0.00
2013-12-1,44,36,31,32,16,3,84,48,20,29.85,29.65,13,3,13,0.04
2013-12-2,42,37,32,29,20,13,87,50,32,29.65,29.56,6,2,7,0.00
2013-12-3,52,34,27,30,18,-1,90,61,16,29.71,29.59,8,1,8,0.00
2013-12-4,60,40,33,36,24,12,86,58,17,29.71,29.56,9,2,9,0.00
2013-12-5,64,52,38,34,26,11,47,36,21,29.68,29.41,23,8,23,0.00
2013-12-6,39,35,31,30,12,5,84,41,27,29.94,29.68,12,5,12,0.08
2013-12-7,35,29,25,15,0,-8,52,29,18,30.24,29.91,21,7,21,0.00
2013-12-8,34,26,20,15,-6,-10,60,25,17,30.27,29.91,12,4,12,0.00
2013-12-9,41,35,27,24,15,7,68,45,31,29.91,29.53,27,8,27,0.04
2013-12-10,32,25,21,13,-5,-13,65,27,18,29.74,29.59,26,8,26,0.00
2013-12-11,28,23,18,11,-7,-13,59,27,18,29.94,29.71,27,9,27,0.00
2013-12-12,23,17,10,8,-4,-17,65,43,20,30.00,29.71,25,6,25,0.08
2013-12-13,25,19,11,16,-6,-17,73,34,21,30.09,29.71,26,6,26,0.00
2013-12-14,22,15,10,15,0,-14,75,51,29,30.15,29.44,53,4,53,0.00
2013-12-15,26,23,20,20,7,-10,81,54,25,29.53,29.29,27,6,27,0.04
2013-12-16,25,14,2,7,-6,-20,61,39,21,29.88,29.53,26,5,26,0.00
2013-12-17,30,20,4,18,2,-18,69,48,35,29.85,29.59,14,3,14,0.04
2013-12-18,35,29,26,19,5,-4,73,37,22,29.74,29.59,18,6,18,0.00
2013-12-19,45,36,27,20,8,-4,53,32,18,29.74,29.56,24,5,24,0.12
2013-12-20,44,38,35,38,33,20,90,81,54,29.68,29.47,7,2,7,0.31
2013-12-21,39,35,32,36,33,27,92,90,82,29.59,29.38,91,2,91,0.71
2013-12-22,41,35,32,35,30,23,88,83,50,29.65,29.32,27,1,27,1.06
2013-12-23,41,35,27,29,20,9,76,55,41,29.94,29.62,13,4,13,0.00
2013-12-24,27,20,11,19,7,-2,83,56,42,30.18,29.91,15,4,15,0.00
2013-12-25,27,15,3,-1,-6,-14,54,40,19,30.21,29.88,9,3,9,0.00
2013-12-26,36,28,24,18,2,-6,56,33,24,29.94,29.74,19,6,19,0.04
2013-12-27,34,28,21,18,6,-6,64,40,25,29.97,29.77,13,5,13,0.00
2013-12-28,47,38,28,27,14,2,92,42,18,29.77,29.62,26,6,26,0.00
2013-12-29,47,40,28,30,16,2,93,41,17,29.62,29.29,17,5,17,0.00
2013-12-30,28,18,12,8,0,-6,61,45,32,29.91,29.44,22,5,22,0.00
2013-12-31,26,18,14,5,-8,-19,46,31,19,29.91,29.65,30,7,30,0.00
2014-1-1,23,18,16,6,-6,-16,56,36,20,30.09,29.91,50,5,50,0.00
2014-1-2,16,12,6,4,0,-6,60,58,53,30.00,29.71,22,7,22,0.00